Wind_Gust
13 12 11 14 14 15 16 14 15 16 15 16 16 15 16 19 19 17 17 20 21 22 22 21 20 20 20 21 21 22 22 22 18 12 11 12 13 11 11 13 17 17 15 16 15 15 15 17 18 18 16 15 15 15 11 13 16 18 19 17 14 12 14 16 15 12 11 11 12 16 18 21 21 21 21 18 19 18 14 16 17 17 17 16 16
12 14 12 14 14 14 15 15 14 16 15 17 18 18 18 21 20 19 19 20 20 22 24 23 23 22 20 22 23 22 22 23 28 30 31 29 22 12 13 14 16 17 14 16 16 16 15 16 17 15 16 18 16 16 16 15 15 18 20 22 18 19 17 19 15 12 13 16 7 9 14 20 22 18 23 21 20 19 18 16 15 18 19 15 15
14 14 14 14 14 14 14 16 16 17 16 18 19 20 19 19 21 21 21 20 21 22 23 24 24 24 22 23 24 24 24 25 30 32 32 31 31 30 24 16 16 17 15 11 11 12 15 16 19 17 15 17 17 16 14 15 16 16 17 19 19 14 15 15 16 16 18 20 14 14 17 18 21 22 19 21 23 24 20 18 19 16 17 17 17
15 15 15 15 14 14 16 16 17 19 18 19 19 19 20 19 20 20 19 20 22 21 23 24 24 25 24 25 25 25 25 26 30 25 25 27 29 29 27 25 21 16 11 14 15 14 16 15 16 17 15 15 16 16 17 17 18 17 16 13 14 16 19 15 17 17 16 17 17 18 16 20 17 16 19 17 21 22 17 15 16 19 17 17 18
16 16 16 15 16 17 16 16 18 19 18 19 19 20 20 21 20 21 21 21 21 21 23 22 22 24 26 25 26 26 25 23 25 27 27 26 24 24 25 24 23 22 16 15 17 19 17 17 15 15 14 15 15 17 18 18 19 19 18 15 16 13 19 19 15 11 14 17 20 18 16 17 18 13 19 22 19 20 14 18 20 19 18 17 17
16 16 16 16 17 18 17 17 19 19 17 17 19 19 21 21 21 20 21 21 21 21 24 24 27 27 28 28 27 25 25 21 27 27 28 27 26 25 24 23 24 23 18 13 14 14 17 17 17 16 15 15 15 16 18 19 19 19 17 15 15 13 13 12 12 16 12 10 12 11 17 12 11 12 18 20 23 23 18 16 15 16 18 16 16
16 16 15 15 17 18 18 18 19 18 18 17 18 19 20 21 21 21 20 20 22 23 23 24 25 25 28 27 28 27 25 26 31 30 30 29 27 26 26 24 24 23 21 20 16 15 15 16 15 15 17 16 15 15 17 17 17 18 19 19 16 14 14 12 12 16 17 13 10 13 16 15 15 17 9 10 15 18 21 18 18 18 17 20 18
14 14 15 15 17 18 16 16 16 18 18 17 19 21 22 22 20 20 20 20 22 22 23 24 24 27 26 27 29 27 25 28 38 37 33 29 28 27 25 24 24 24 22 22 18 16 16 17 16 16 17 16 17 18 16 17 15 17 16 14 15 17 17 14 14 15 15 12 14 12 10 12 11 10 11 14 16 14 16 22 23 20 18 18 19
11 12 14 15 16 15 15 15 15 16 16 17 19 21 22 21 21 20 19 20 20 22 21 21 23 25 27 29 29 27 25 29 36 36 35 31 29 27 25 25 24 23 22 21 20 14 12 13 13 14 17 19 18 17 14 15 19 19 17 17 17 18 18 18 16 17 17 19 15 14 15 16 18 20 21 20 26 32 26 18 18 18 17 15 14
8 10 14 14 13 14 15 15 16 15 16 17 18 19 20 20 21 20 20 19 19 21 20 19 21 24 30 31 28 25 24 29 39 39 32 33 31 26 26 25 23 22 22 21 19 16 15 13 16 18 20 21 18 16 17 19 20 20 17 19 20 19 16 19 20 19 18 18 19 19 17 17 19 23 27 26 22 13 16 15 16 15 15 12 9
9 12 15 14 13 13 14 14 14 16 17 17 16 17 17 18 19 20 20 19 19 20 20 20 21 22 23 26 29 25 26 30 33 31 31 36 32 27 24 23 22 22 21 20 20 17 15 14 12 14 17 16 20 21 20 19 22 22 17 17 17 21 22 21 21 20 21 21 20 17 20 19 20 21 24 25 20 21 22 22 16 13 21 20 22
13 13 13 13 13 12 12 11 12 12 13 16 16 15 14 15 16 15 17 19 21 20 21 20 19 21 21 22 22 25 24 25 32 33 33 34 33 33 22 20 21 21 21 21 21 18 15 15 14 13 14 15 18 20 19 19 21 19 16 20 20 19 19 25 25 21 20 20 19 21 21 21 21 20 20 20 23 19 21 19 23 21 21 23 21
12 13 13 14 13 12 11 13 13 12 10 13 14 15 14 14 14 15 17 18 18 20 21 20 20 22 22 23 23 25 22 27 32 35 35 36 35 31 21 18 19 20 21 21 21 21 16 13 13 12 13 18 21 19 16 16 14 14 14 20 20 24 26 22 18 24 24 23 23 22 23 22 20 21 23 27 24 22 21 21 20 20 23 24 23
10 11 12 13 14 13 13 13 13 14 10 10 13 15 16 17 14 11 14 15 18 19 19 22 21 23 24 23 22 22 21 28 32 35 36 37 37 30 22 24 22 19 20 21 21 20 20 18 15 16 13 13 18 20 17 15 14 11 13 16 16 10 10 11 21 22 18 21 17 21 20 17 23 20 18 16 19 22 22 24 21 21 23 29 21
10 10 12 13 14 13 13 13 14 14 13 10 12 15 16 16 17 12 12 16 18 20 19 20 22 23 23 22 22 22 24 29 32 34 36 38 37 25 26 28 25 25 26 26 26 25 24 23 18 18 15 15 18 18 16 15 15 15 16 16 12 9 14 19 21 19 19 21 20 14 9 10 7 10 17 17 21 22 22 22 20 21 22 9 8
11 10 11 12 13 13 13 12 12 12 13 12 11 14 14 17 18 17 10 13 15 15 15 16 19 21 20 22 22 23 24 27 32 32 34 37 36 30 29 27 27 28 28 27 26 26 26 27 25 22 15 14 14 19 17 16 14 16 17 13 12 11 10 12 9 6 5 7 13 16 11 7 8 11 19 19 16 14 13 10 13 13 15 18 18
11 10 9 10 12 12 11 12 12 13 13 13 14 12 12 14 14 15 13 11 15 17 15 15 16 17 20 20 22 22 23 26 31 32 32 35 29 29 30 27 28 27 25 24 23 22 22 25 23 24 25 20 13 19 18 15 15 17 16 15 13 14 11 10 8 7 7 13 20 20 16 13 11 9 12 20 18 15 17 14 15 22 18 15 10
9 8 9 9 11 10 11 11 11 11 11 12 12 13 9 7 11 13 15 13 15 16 12 13 14 15 17 19 22 22 21 23 28 30 32 33 29 27 27 26 24 25 25 24 22 21 22 31 30 24 26 24 25 23 21 19 18 19 18 16 15 14 13 13 15 15 21 22 23 21 19 18 18 16 13 11 15 17 21 22 16 16 20 20 19
8 9 8 8 10 10 9 8 8 9 9 9 9 11 12 10 6 8 10 10 10 11 12 11 13 12 14 15 18 21 20 20 25 28 31 31 31 26 26 25 25 27 26 26 22 23 24 22 29 30 29 25 33 26 22 19 18 19 21 20 18 17 16 18 20 21 20 20 15 18 17 14 16 16 18 19 17 11 8 18 16 12 18 17 18
9 9 8 8 8 8 7 7 7 8 7 7 7 8 8 9 10 8 7 8 9 9 11 11 12 13 11 13 16 17 19 21 25 28 29 29 30 32 24 28 29 27 25 27 29 26 24 25 27 30 30 33 30 29 23 22 18 19 21 20 19 17 15 15 16 21 20 21 17 17 18 14 14 14 14 16 17 14 14 7 9 19 17 18 18
9 7 7 6 6 6 6 7 6 6 6 6 6 8 9 10 11 10 8 8 7 9 10 8 11 12 12 12 13 15 18 20 23 26 27 29 29 26 24 25 23 24 24 26 25 26 27 27 24 29 30 31 32 31 27 22 17 20 21 22 19 20 17 18 19 18 21 18 16 15 15 16 15 14 16 15 15 14 14 14 14 11 13 21 22
7 7 7 6 4 5 6 5 5 6 6 8 8 9 9 9 11 10 11 9 7 8 7 8 10 12 12 12 11 14 16 20 21 22 26 28 28 29 26 23 26 22 23 23 25 26 26 25 26 29 30 31 32 34 28 21 17 15 15 14 20 18 18 18 20 19 19 18 18 16 15 16 17 17 15 16 16 16 15 16 14 20 17 15 19
10 9 8 7 6 7 4 5 5 6 8 8 8 8 9 10 10 10 10 10 10 9 10 8 10 12 13 13 11 13 15 17 21 23 24 27 28 26 27 24 24 21 20 23 25 25 23 24 26 29 29 33 32 31 29 20 11 15 22 25 21 20 17 15 18 20 18 16 17 18 15 15 17 16 15 16 15 18 19 17 18 22 22 19 15
13 13 12 10 5 8 5 4 4 6 7 8 8 8 9 9 9 11 10 11 11 11 12 10 10 13 15 16 14 14 14 15 16 22 24 26 26 27 26 25 25 24 20 20 21 23 24 23 25 28 30 32 33 30 27 29 23 23 23 21 22 17 17 17 17 18 18 18 19 18 16 13 16 16 15 14 15 16 19 19 20 19 21 22 20
10 9 10 12 8 6 8 5 4 6 7 7 8 8 7 8 10 9 10 11 11 12 13 12 11 12 14 16 15 16 15 15 16 19 22 23 24 25 26 27 25 24 23 20 19 21 22 26 28 26 28 30 33 28 25 29 32 24 25 23 17 19 18 17 17 18 21 19 18 17 15 12 13 14 13 15 15 17 22 20 18 19 18 21 20
9 9 9 12 12 9 9 8 4 6 7 8 7 7 7 8 9 9 10 11 10 10 12 13 11 10 13 14 15 16 15 14 16 17 15 17 16 21 23 24 25 25 23 21 21 22 23 24 27 27 25 27 30 28 27 32 29 30 27 23 20 20 18 18 15 19 21 20 19 19 15 12 12 9 9 11 17 16 18 20 20 16 17 22 25
6 10 10 10 12 11 10 7 5 6 7 8 8 8 7 7 8 7 8 9 9 9 10 11 12 11 10 13 13 14 15 15 15 16 16 18 18 18 20 21 19 19 22 21 18 20 21 21 20 22 21 25 26 24 26 25 29 27 26 25 23 23 21 19 17 17 16 20 20 18 14 11 11 15 14 14 15 13 12 17 19 16 16 18 25
8 6 9 9 11 9 10 9 7 5 8 8 9 9 9 5 8 7 6 6 9 10 9 10 11 12 12 11 12 13 14 15 17 19 19 16 17 17 16 18 19 20 21 20 18 18 18 16 22 23 25 27 28 26 27 25 24 25 28 26 26 25 22 19 18 19 16 14 17 17 17 17 17 14 15 16 14 12 10 15 17 16 14 18 25
12 10 9 9 11 11 10 11 8 4 6 8 7 5 3 6 3 5 5 3 4 6 7 8 8 9 9 10 11 13 14 17 20 15 21 15 18 16 16 16 15 17 17 19 18 20 23 25 25 26 25 24 25 25 25 25 24 24 26 25 24 24 23 22 23 20 16 15 15 15 16 16 15 14 15 18 15 14 12 14 13 14 11 17 20
10 9 10 9 11 9 8 12 9 11 6 7 3 5 2 6 5 4 2 3 4 3 2 5 4 7 9 11 7 8 12 15 15 21 22 21 18 18 15 15 13 15 17 17 15 19 20 20 20 20 21 21 22 22 21 22 24 25 25 21 26 24 21 20 19 18 17 17 15 14 14 13 15 16 18 17 16 15 13 11 11 10 16 17 17
9 10 10 11 14 11 6 9 12 11 12 4 4 4 3 4 9 10 7 4 4 5 4 5 7 6 3 9 13 13 13 14 18 19 20 20 20 16 15 13 15 13 16 17 21 21 19 19 19 18 18 18 20 19 18 18 18 17 19 19 20 22 21 21 18 15 16 16 15 14 14 15 15 16 18 16 15 14 14 13 14 15 16 16 15
8 7 9 9 13 12 6 6 9 9 11 10 8 9 6 5 2 3 6 7 6 7 7 8 9 10 10 9 9 13 15 15 17 19 20 21 20 18 16 13 12 13 13 12 18 18 17 17 17 17 16 18 18 17 17 17 17 16 15 17 17 16 17 16 14 15 15 16 16 15 15 15 14 14 13 13 13 14 13 12 12 12 10 10 11
7 8 8 8 10 13 13 7 6 8 10 9 8 9 8 9 13 4 6 7 7 7 10 8 9 11 12 13 15 14 14 15 17 19 20 21 22 19 17 16 15 13 12 15 15 15 15 15 16 15 16 16 16 16 16 16 16 16 16 17 16 15 16 14 12 13 12 11 11 11 10 10 9 10 10 11 12 13 11 11 10 11 12 13 11
7 7 8 8 8 9 11 7 8 12 11 8 5 8 6 7 10 6 5 11 7 4 8 9 10 9 11 10 15 18 19 16 17 19 21 22 22 19 15 16 13 13 12 12 13 13 13 14 14 14 14 14 14 14 15 15 15 15 15 16 13 13 14 13 15 15 13 13 12 11 12 12 11 13 12 12 10 11 11 9 13 13 13 14 14
4 5 7 7 7 9 9 4 8 7 10 9 6 4 7 5 8 8 7 8 11 8 2 6 8 5 7 8 12 15 15 16 18 21 22 20 21 19 14 17 14 14 15 14 12 12 11 12 13 13 13 13 13 13 13 12 13 14 14 14 14 14 13 14 14 12 12 12 12 12 10 10 9 9 10 10 11 12 11 12 11 13 14 14 15
6 9 5 6 8 7 9 5 5 8 7 8 8 7 6 8 8 11 5 6 8 9 2 2 3 4 8 9 12 13 12 15 17 20 19 19 20 17 18 18 15 14 12 12 12 12 11 10 11 12 13 13 12 13 12 12 12 12 12 12 12 12 12 13 11 10 10 10 10 11 10 11 10 9 9 10 10 10 10 10 10 10 12 12 12
8 7 3 3 5 6 9 5 8 7 5 10 12 9 11 8 8 10 6 4 6 7 6 3 7 9 8 8 9 11 12 13 15 16 18 18 18 17 16 16 17 16 13 11 11 11 12 12 11 10 10 11 12 11 10 11 10 10 8 11 10 10 10 9 10 8 10 11 10 9 8 9 9 9 8 9 8 8 8 9 9 9 9 12 11
7 6 2 1 3 4 7 7 8 6 8 10 11 9 10 8 7 10 9 6 8 7 8 4 6 6 9 9 9 9 9 10 10 10 10 12 17 16 16 16 16 17 16 12 10 10 10 9 9 10 9 8 8 7 7 8 6 7 6 6 7 8 6 9 8 9 8 9 9 8 8 8 7 8 8 8 6 7 8 9 11 12 12 11 11
6 4 5 5 5 4 4 6 7 5 10 7 7 8 5 9 8 10 9 10 7 7 6 4 3 5 5 6 8 8 11 13 14 13 13 13 13 14 15 15 16 16 16 14 11 10 10 10 9 8 6 5 4 3 3 2 1 2 3 5 6 7 7 6 7 6 6 6 6 5 6 5 6 5 3 6 6 5 6 7 8 10 12 10 9
4 7 6 6 5 7 4 4 4 3 6 4 4 4 3 4 3 4 3 9 7 7 6 6 3 2 3 4 5 9 13 10 10 11 11 11 12 13 13 14 15 15 15 16 14 9 9 9 8 8 7 7 7 6 3 2 3 5 5 3 5 8 6 8 7 7 7 4 3 3 3 2 2 3 5 4 4 6 8 7 6 8 10 11 10
2 5 1 5 3 4 4 6 5 3 3 2 2 2 4 5 4 2 3 3 4 6 6 3 2 2 2 3 5 8 11 10 10 10 9 10 10 10 11 12 12 15 15 14 13 11 9 7 7 8 8 8 8 7 8 6 7 6 4 6 7 8 7 7 7 6 8 7 6 6 4 5 4 4 2 4 4 7 7 9 10 10 10 9 10
6 9 5 2 3 5 6 6 7 3 2 2 4 6 6 3 2 3 2 2 2 3 3 3 2 3 2 2 7 9 11 9 9 7 7 9 9 10 9 11 11 11 12 13 13 11 9 9 7 7 8 8 8 9 8 7 5 5 5 7 8 9 10 10 9 9 10 10 9 9 8 7 7 7 5 4 6 6 10 10 11 11 11 10 9
8 6 7 3 4 7 4 4 3 6 7 8 9 8 7 3 5 3 1 2 1 2 2 3 3 3 3 4 9 9 11 9 5 5 4 6 6 8 8 9 10 11 10 11 12 12 9 9 9 9 7 9 8 9 10 7 6 8 11 10 10 10 10 10 11 10 9 10 11 10 9 8 6 5 7 8 10 11 11 10 9 11 10 11 11
7 10 8 4 7 7 7 6 3 6 4 6 8 6 6 2 3 1 3 4 5 5 3 3 2 3 5 8 10 11 8 5 4 4 3 5 5 7 7 8 9 11 11 11 12 11 11 12 12 11 12 12 12 9 6 7 10 9 9 9 9 10 10 10 9 8 9 10 11 10 9 8 7 7 7 6 9 11 10 9 10 11 11 9 10
4 9 7 6 8 6 7 4 3 3 5 9 12 12 6 6 6 4 5 5 5 7 5 1 3 2 3 9 10 9 8 4 2 3 3 3 3 4 6 8 8 9 9 10 9 11 10 11 11 11 12 12 13 13 12 9 7 9 8 11 9 9 8 8 7 5 8 11 11 11 9 7 8 10 9 8 8 9 9 7 7 7 10 8 9
7 6 6 5 6 5 4 6 3 3 8 8 7 5 5 7 7 8 2 2 3 6 6 2 3 4 3 10 10 6 4 2 2 2 3 3 4 4 5 7 7 8 8 8 8 9 9 9 10 10 10 12 11 12 14 13 12 11 11 9 8 7 5 7 8 11 11 11 12 11 10 8 9 9 8 10 9 7 7 6 6 8 8 7 8
7 4 5 4 5 4 3 4 3 6 9 9 3 4 4 6 9 4 2 3 7 7 7 5 7 3 3 9 9 6 4 5 5 6 6 5 5 4 4 5 7 8 10 8 7 8 9 9 8 9 10 10 9 10 10 10 11 11 10 10 10 10 9 8 9 8 8 9 10 10 8 5 9 8 9 10 10 9 8 8 5 4 6 6 5
4 5 8 4 4 3 3 5 4 6 8 4 4 7 8 6 7 4 5 8 11 11 11 6 8 3 3 5 9 8 7 5 5 7 6 6 4 2 2 2 3 5 7 8 8 9 8 8 7 8 9 10 7 8 8 8 9 9 9 9 9 8 9 7 8 9 7 8 9 8 6 8 9 9 9 9 9 10 11 10 7 5 4 4 3
6 7 7 5 3 4 2 2 2 4 2 2 7 10 10 3 3 4 5 6 8 7 9 8 3 3 2 2 6 8 7 6 7 8 7 5 6 4 2 1 2 2 2 4 7 7 8 9 8 8 7 7 4 6 6 7 7 7 7 7 7 9 10 10 8 8 8 9 9 10 9 9 9 9 9 9 9 6 8 6 7 7 8 5 5
6 5 5 2 3 4 4 3 2 4 3 3 7 9 7 2 3 4 4 5 7 7 8 6 3 4 1 1 2 5 5 8 9 8 7 7 7 6 4 2 2 3 3 4 6 7 7 8 8 9 5 6 5 5 5 5 5 5 4 6 8 11 10 9 9 11 10 6 7 7 6 10 9 9 9 9 9 8 8 6 6 8 9 10 7
5 7 8 4 3 2 2 4 4 2 3 2 2 3 4 2 2 4 3 3 4 4 4 5 2 1 1 2 1 3 5 8 10 8 7 7 8 7 6 5 4 4 5 6 7 7 8 8 8 8 3 8 5 4 5 4 3 4 5 6 8 9 10 9 9 9 10 7 5 7 8 10 9 9 8 8 7 8 8 9 10 10 9 10 9
Wind_Speed
7 6 7 8 9 10 10 8 9 8 8 10 9 9 9 11 11 9 9 11 12 13 13 13 12 11 12 13 13 12 12 13 11 8 6 7 7 6 7 6 7 8 9 9 9 9 9 9 10 10 8 8 8 8 6 6 6 7 7 7 7 7 7 8 8 6 3 1 2 5 10 12 10 13 12 10 10 10 10 9 10 10 9 8 9
8 8 7 8 8 8 9 8 9 9 9 10 11 10 11 11 11 11 11 11 12 13 14 13 13 13 12 13 14 13 13 13 17 17 17 17 15 8 6 8 8 9 8 9 7 7 8 9 10 9 8 10 9 9 9 8 8 9 9 11 10 10 9 8 8 6 7 2 2 5 6 12 11 11 13 12 11 11 11 9 7 9 9 8 8
9 8 8 8 8 8 8 9 10 10 10 10 11 11 11 11 11 11 11 11 12 12 13 14 14 14 13 13 14 14 14 14 12 13 12 12 13 15 15 10 8 9 9 5 5 6 8 9 11 10 8 9 9 9 8 8 8 9 10 11 11 9 6 6 6 8 8 8 3 4 8 9 10 12 11 11 13 13 11 10 10 8 8 9 9
9 9 8 9 9 9 9 9 10 10 11 11 12 12 12 11 11 11 11 11 12 11 12 13 12 14 13 13 14 13 14 13 13 13 12 13 14 14 13 14 13 10 7 7 8 8 9 8 8 10 8 9 8 8 7 7 8 8 9 8 8 8 8 7 10 8 8 8 6 8 7 10 6 9 10 9 10 12 9 8 9 10 9 9 9
10 9 9 10 10 10 10 10 11 11 10 11 12 11 12 12 11 12 12 12 12 12 12 12 12 14 14 14 15 14 13 13 15 15 15 14 14 13 14 13 13 13 10 9 9 9 10 10 9 8 8 8 8 9 9 11 10 10 10 9 9 8 9 10 9 5 7 9 9 8 5 1 5 1 7 10 9 10 8 10 11 11 10 9 9
9 8 8 9 10 11 10 11 12 12 10 10 11 11 11 12 12 11 12 12 12 11 12 12 14 15 15 15 15 14 13 12 16 16 16 16 15 14 13 12 12 12 12 8 8 8 9 10 9 8 8 9 8 9 10 12 12 11 11 9 8 7 8 8 6 5 5 6 8 5 5 4 5 4 10 10 11 11 9 8 7 8 9 8 8
7 8 7 8 9 10 11 11 11 11 11 10 10 11 12 12 12 12 10 11 12 12 12 12 13 15 15 15 15 15 14 15 18 18 17 17 16 15 15 14 13 11 12 12 10 9 9 9 9 9 10 9 8 8 9 10 10 11 11 11 9 8 8 7 7 8 9 7 5 5 5 7 8 8 4 1 3 6 10 9 8 8 9 10 9
5 5 6 8 9 10 9 9 9 9 8 10 11 12 12 12 11 10 10 11 11 12 11 12 12 14 14 14 15 14 13 16 21 21 20 17 15 15 14 13 14 13 12 12 11 9 9 9 9 9 9 9 9 10 10 9 9 10 9 8 8 9 9 7 7 8 8 7 6 6 5 5 5 4 3 8 4 5 7 10 11 10 9 9 10
4 5 7 9 9 9 8 7 7 8 8 9 10 11 11 11 11 11 10 11 9 11 11 11 12 13 15 15 15 14 12 14 16 18 18 18 17 15 14 14 13 13 13 12 12 9 7 8 8 9 11 14 14 13 12 10 9 9 9 9 10 10 10 8 7 7 8 8 7 6 7 7 9 10 9 10 14 15 12 7 8 9 9 8 7
5 6 8 8 8 8 7 7 7 8 9 9 9 9 10 10 10 11 11 11 11 11 11 11 12 13 13 14 13 10 11 11 21 28 23 18 18 13 13 13 13 12 12 12 12 10 9 8 9 13 13 12 13 14 14 14 15 12 9 10 11 10 8 8 8 8 8 9 8 9 10 9 10 12 14 14 11 8 10 9 8 8 7 7 5
6 7 9 8 7 7 7 6 6 8 8 9 9 9 9 9 9 9 10 11 11 11 11 11 12 12 13 12 13 11 11 14 23 21 23 25 19 16 13 12 12 12 12 11 11 10 9 8 7 10 13 13 14 18 17 16 16 17 15 14 14 11 10 10 11 11 10 10 10 9 10 11 11 11 13 13 10 12 12 11 8 6 10 10 10
8 8 8 8 7 7 7 7 7 6 8 10 10 9 8 7 8 8 9 11 10 10 11 11 11 12 11 12 12 11 10 19 23 23 24 25 23 17 11 9 9 10 11 11 12 11 9 9 8 7 8 9 11 12 14 16 17 17 15 17 17 14 16 15 12 9 10 10 10 12 11 11 11 10 10 10 12 10 9 10 12 12 11 12 9
7 8 8 8 8 7 7 8 8 7 7 8 8 9 8 8 7 8 10 10 9 10 11 12 12 11 11 12 12 11 11 20 23 25 24 26 26 20 11 10 10 10 10 11 12 12 10 8 7 7 7 13 13 11 10 10 12 13 13 16 15 15 16 17 15 14 13 12 12 12 12 11 11 11 12 14 12 12 11 10 10 10 11 12 11
6 7 8 8 9 8 8 8 8 8 6 6 8 9 10 10 8 5 7 9 10 10 10 11 11 11 11 11 10 11 11 20 24 25 24 25 25 19 12 14 12 10 11 12 12 11 11 10 8 8 8 8 10 11 10 9 8 7 9 9 9 7 5 9 15 19 11 8 8 11 11 10 12 11 11 10 11 11 11 11 11 10 12 15 13
6 6 7 8 8 8 8 8 8 8 7 6 7 8 9 9 10 7 6 9 9 9 8 9 10 11 11 11 11 11 11 20 22 24 25 25 25 17 13 13 13 14 14 15 15 14 14 13 10 10 9 8 9 11 10 9 8 9 9 10 8 6 6 9 12 11 11 12 12 6 2 3 3 6 8 7 11 13 13 13 12 11 11 4 4
6 6 7 7 8 8 8 7 7 7 7 7 6 7 7 8 9 8 6 6 7 6 6 7 9 10 11 11 11 11 11 19 22 24 25 25 24 13 14 12 12 13 13 13 12 11 10 12 13 12 10 8 10 15 13 8 8 9 9 8 7 6 5 3 5 5 3 3 7 9 7 5 3 4 10 10 10 6 6 5 5 5 7 9 9
5 6 6 6 7 6 6 6 6 6 6 6 7 6 5 6 6 6 6 5 7 7 6 7 6 7 9 10 11 11 11 17 22 23 24 26 20 13 13 13 12 12 11 13 13 12 11 13 12 12 14 12 10 14 16 13 9 10 9 8 7 7 4 2 4 2 3 8 12 13 11 10 9 7 12 18 11 10 9 8 9 12 8 8 5
5 5 6 6 6 6 5 5 5 5 5 6 6 6 5 4 5 5 6 6 7 7 5 6 6 6 8 9 10 11 11 16 22 22 24 25 21 13 11 11 12 12 12 12 12 11 13 22 19 13 13 12 19 20 16 14 10 11 10 9 9 8 6 4 4 6 12 13 13 13 12 12 14 13 10 5 14 14 12 11 8 9 11 11 9
5 6 5 5 5 5 5 5 5 5 5 5 5 6 6 6 4 4 5 5 5 5 5 6 6 6 6 7 12 12 11 14 20 23 24 24 19 13 13 11 12 13 13 13 12 12 13 15 19 18 16 13 20 19 16 14 10 9 10 11 10 10 9 9 10 11 10 10 8 9 9 9 8 8 9 13 11 6 2 9 7 6 9 9 10
5 5 4 4 4 5 4 4 4 5 4 4 5 5 4 5 6 4 4 4 5 5 4 5 7 7 6 7 9 9 11 12 16 23 23 23 23 15 11 12 16 15 13 13 14 14 14 13 16 22 22 21 19 21 19 16 12 10 12 11 10 10 8 8 8 10 10 12 9 8 9 8 8 8 7 8 7 5 6 3 5 10 8 8 8
4 4 4 4 4 4 4 4 4 5 4 4 4 4 5 6 6 6 5 4 4 6 5 5 6 7 7 7 7 9 10 12 14 21 22 23 23 19 12 13 13 12 12 12 12 13 13 13 13 20 23 22 21 22 22 14 15 7 10 11 10 12 12 9 9 12 11 11 10 8 8 8 8 8 7 7 6 6 6 6 6 4 7 11 11
5 5 5 3 3 4 3 2 3 4 4 5 5 6 5 5 5 6 7 5 5 5 5 5 6 7 7 7 6 8 10 14 12 17 21 23 22 23 14 13 14 11 12 11 12 12 13 13 12 20 23 22 22 23 23 13 15 8 8 11 17 15 11 10 10 9 10 9 9 8 7 8 8 8 8 7 7 7 8 8 8 9 9 8 7
6 5 5 5 4 4 3 3 4 4 4 5 5 5 5 6 6 6 6 6 6 6 6 5 6 7 7 8 7 7 9 9 16 14 18 21 22 21 21 16 19 11 11 12 12 11 12 13 14 22 20 23 23 24 24 17 7 6 16 20 17 17 14 8 9 10 9 9 9 9 7 7 8 8 8 8 7 8 10 9 10 12 12 10 8
6 7 7 6 4 5 3 2 3 4 5 5 5 5 6 5 5 6 6 6 6 7 7 6 6 7 8 9 8 8 8 8 11 16 15 19 19 21 21 20 19 14 10 9 10 11 11 12 15 22 21 22 25 24 21 22 14 9 19 16 18 15 9 9 8 9 10 9 10 9 8 6 8 9 8 8 8 9 11 11 11 11 12 12 12
6 6 6 7 5 4 5 3 3 4 4 5 5 5 5 5 6 5 6 6 6 6 7 6 6 6 7 8 8 8 8 8 8 12 17 17 18 18 20 21 20 19 12 9 11 10 14 19 21 21 21 21 23 22 17 21 26 20 16 18 13 9 10 9 8 9 10 10 9 9 8 7 6 7 8 9 9 10 12 11 10 10 11 12 12
6 6 6 7 8 5 5 4 3 4 5 5 4 4 4 4 4 5 6 6 5 6 6 6 6 6 6 7 8 8 8 8 8 9 9 12 12 17 18 17 19 19 16 13 17 17 18 18 19 20 19 19 16 16 14 17 22 23 20 17 11 9 9 9 8 9 10 9 10 10 8 7 6 5 5 6 9 9 9 10 11 9 10 11 13
4 5 6 6 7 7 7 4 3 4 4 5 4 4 4 4 4 4 5 5 5 5 6 6 7 6 6 7 7 7 8 8 8 9 8 9 9 10 10 11 15 14 12 12 12 12 12 12 11 15 14 19 19 18 19 18 17 15 13 12 12 11 11 10 9 9 7 8 10 9 8 6 6 7 8 8 9 7 7 9 9 8 8 9 13
5 4 5 6 6 5 5 6 4 3 4 4 5 5 3 3 5 4 4 4 5 6 5 6 6 6 7 7 7 8 8 8 9 10 11 9 9 8 8 9 9 10 11 11 10 10 10 12 15 13 13 14 14 13 14 13 13 13 12 11 13 13 14 15 14 10 8 6 7 8 9 9 9 7 8 8 7 6 5 7 9 8 7 9 11
6 6 6 6 6 5 6 6 4 3 3 4 3 1 2 3 2 3 3 1 1 3 5 4 4 4 5 6 7 8 8 9 10 12 13 13 10 8 8 8 8 9 11 15 10 10 11 13 13 14 13 12 13 13 13 13 12 12 14 13 12 13 12 11 12 11 8 8 8 7 8 9 8 7 8 9 7 7 6 8 7 7 6 8 10
6 5 5 6 7 5 5 6 6 6 2 2 2 2 1 4 4 2 0 0 2 1 1 0 2 3 5 6 4 5 6 8 12 16 17 17 15 12 10 11 11 10 14 15 10 9 10 10 10 10 11 11 11 11 11 11 11 12 12 14 14 13 11 11 10 9 9 9 8 8 7 7 8 7 8 9 8 8 8 7 6 6 8 9 9
5 7 6 6 8 7 3 4 5 5 5 1 2 1 1 1 7 6 3 2 3 3 4 4 6 5 2 5 8 12 12 12 15 15 16 16 17 13 12 11 12 12 14 10 10 10 10 10 9 9 10 9 10 10 9 9 9 9 10 10 10 11 12 11 9 8 9 9 8 7 7 8 7 7 7 8 8 8 8 7 7 8 9 9 9
6 5 5 4 7 7 4 4 5 6 7 6 4 4 5 3 1 3 3 4 4 5 5 7 8 9 8 7 7 7 10 12 14 15 16 17 17 15 14 12 11 11 11 10 9 9 9 9 9 9 8 9 9 9 9 9 9 8 8 9 9 8 9 9 8 9 8 8 8 8 8 8 7 7 7 7 7 7 7 7 6 6 6 6 7
5 5 5 5 5 6 7 4 4 6 6 5 4 4 4 4 6 2 3 5 4 5 8 7 8 9 10 10 13 11 10 12 15 15 16 18 18 16 14 14 13 11 10 9 8 8 8 8 8 8 8 8 8 8 8 9 9 9 9 9 9 8 8 8 7 7 7 6 6 6 6 6 6 6 5 6 6 6 6 6 5 6 6 6 6
4 4 4 4 4 5 6 4 5 6 5 4 3 3 3 4 5 3 4 7 4 2 7 7 8 8 8 9 10 10 12 13 13 16 18 17 17 15 12 10 11 12 9 7 7 7 7 7 7 8 7 7 7 7 8 8 8 8 8 9 9 8 8 7 8 8 7 7 7 6 6 6 5 5 5 5 4 5 5 4 5 7 7 7 8
3 4 6 5 4 4 6 3 4 5 5 5 4 3 4 4 5 5 4 4 5 2 1 2 6 5 4 6 10 10 11 12 16 16 15 16 17 15 12 9 8 8 8 7 7 6 6 7 7 7 7 7 7 7 7 8 7 7 7 7 7 7 7 7 7 7 7 6 7 6 5 6 5 5 5 5 5 6 6 6 6 7 8 7 8
3 4 3 3 4 3 4 3 3 4 3 5 6 5 4 5 5 4 2 3 3 5 1 1 2 4 8 8 10 10 10 12 13 14 15 15 15 13 9 9 8 7 7 6 7 7 7 6 6 6 7 7 6 7 6 6 7 6 6 6 7 6 6 7 6 6 6 5 6 6 6 6 5 5 5 6 5 6 6 6 6 6 7 7 6
4 3 2 1 3 3 4 3 4 4 4 6 7 5 7 4 5 5 4 3 4 4 3 1 4 5 6 5 6 9 10 11 11 13 14 14 14 10 8 8 8 9 7 6 6 6 7 7 6 6 5 6 6 6 5 6 6 6 6 6 5 6 6 5 5 5 5 6 5 5 5 5 5 5 5 5 5 5 5 5 6 5 6 7 7
4 4 2 0 1 2 4 4 3 5 5 5 3 3 4 4 4 5 4 4 4 4 3 2 4 3 5 5 5 5 5 8 9 8 8 10 9 8 7 8 8 9 9 7 6 5 6 5 5 5 5 4 4 3 4 4 3 3 3 4 4 5 5 5 5 5 5 5 5 5 5 5 5 5 5 5 4 4 5 5 6 6 6 6 6
4 3 4 3 5 2 2 3 3 3 4 2 3 4 3 3 3 3 3 3 4 4 4 2 2 2 3 3 4 5 6 7 7 7 7 7 7 7 7 8 8 8 8 8 6 5 5 6 5 5 4 4 2 1 1 0 1 1 2 3 4 4 4 4 5 4 3 4 4 3 3 3 4 3 3 4 4 3 3 4 5 6 6 5 5
3 4 4 5 3 3 2 2 2 2 3 2 1 1 2 3 2 2 1 3 3 3 3 2 0 0 2 2 3 5 7 6 6 6 6 7 7 7 7 7 7 7 8 8 7 5 5 5 5 5 5 5 5 4 2 2 2 4 4 2 4 5 4 5 4 5 4 3 2 1 2 1 2 2 3 3 3 3 4 4 4 5 6 6 5
1 2 1 4 2 2 3 4 4 0 2 1 1 1 2 3 3 2 1 1 2 2 3 1 1 1 1 2 5 6 7 6 5 5 5 5 6 6 6 6 6 7 7 7 7 6 5 5 5 5 5 5 5 5 5 4 3 3 3 3 4 5 5 4 4 4 5 4 4 3 3 3 2 2 2 2 3 5 5 5 6 6 6 5 5
4 5 4 1 2 2 4 3 3 2 1 2 3 4 4 2 1 2 1 1 2 1 1 2 1 1 2 2 6 8 7 4 3 3 4 4 5 5 5 6 6 6 6 6 6 6 5 5 4 4 5 5 5 5 5 4 3 3 4 5 6 6 6 6 6 6 6 6 6 5 5 5 5 3 3 3 3 4 6 6 7 6 6 5 5
2 2 5 1 3 3 2 3 1 4 5 6 5 5 4 2 3 2 0 1 1 1 2 2 1 1 2 3 7 8 5 4 3 2 3 4 4 5 5 5 5 5 5 6 6 6 5 5 6 5 5 5 4 4 5 4 4 5 6 5 5 6 6 6 6 6 5 5 6 5 5 5 4 3 4 5 6 6 6 5 5 6 5 5 5
4 4 5 2 3 4 4 4 2 3 3 5 5 4 4 1 1 1 3 3 3 3 2 0 2 1 3 5 6 5 3 2 2 1 2 3 4 4 4 5 5 5 6 6 6 6 6 6 6 6 7 7 7 5 4 3 4 5 5 5 5 6 6 6 5 5 5 6 6 6 5 5 3 3 4 4 5 6 5 5 5 5 6 5 6
2 3 4 0 4 3 4 2 2 2 4 6 7 7 4 3 4 3 2 1 3 3 2 0 2 1 2 6 5 5 3 2 1 1 2 3 3 3 4 5 5 5 5 5 5 6 5 6 6 6 7 6 7 7 6 5 5 5 4 5 5 5 5 4 3 3 5 6 6 6 5 4 5 6 5 5 4 5 6 4 4 5 5 4 5
2 3 3 1 4 3 3 3 2 2 6 4 3 3 2 4 4 3 0 1 2 4 4 0 2 2 2 6 4 4 2 2 1 1 2 2 3 2 3 3 4 4 4 4 5 5 5 5 5 5 6 6 5 6 6 6 6 6 6 5 5 3 3 3 3 6 6 6 7 6 5 5 5 5 5 5 5 5 4 3 4 5 4 4 4
3 2 4 1 3 1 2 1 2 4 6 5 3 3 3 4 3 1 1 3 5 5 5 3 3 1 2 6 4 4 3 3 3 3 3 3 3 1 1 2 3 4 5 5 4 5 5 5 4 5 5 4 5 6 6 5 5 5 5 5 5 5 5 4 4 4 5 5 6 6 5 3 5 5 5 6 6 6 6 5 2 3 3 3 3
2 4 4 3 2 2 1 2 2 3 3 2 3 4 4 3 2 2 3 5 6 6 7 3 3 1 2 4 6 4 4 3 3 4 3 3 3 1 0 1 2 2 2 4 4 5 5 5 4 4 5 4 4 4 4 4 4 5 5 5 5 4 6 5 3 4 4 5 5 5 3 4 6 5 6 6 6 6 6 6 4 3 2 2 2
2 4 5 4 2 3 1 0 0 2 1 1 4 6 5 1 0 1 4 3 4 4 4 3 2 1 0 0 4 5 4 4 4 4 3 3 3 3 1 0 1 2 1 2 3 4 5 5 5 4 4 2 3 3 3 3 4 4 3 4 4 7 7 8 5 4 5 5 5 5 4 5 5 5 6 6 5 3 4 4 4 4 4 2 2
3 4 4 1 3 3 0 1 2 1 2 0 3 3 2 0 2 2 2 3 4 3 4 3 2 2 0 0 1 3 4 6 5 4 3 3 3 3 3 2 1 2 2 3 3 4 5 4 5 4 2 3 3 2 2 2 2 2 2 3 5 7 7 7 7 8 7 4 4 4 3 5 5 5 5 6 5 5 5 4 3 4 5 6 5
1 3 6 3 2 2 1 3 3 1 3 1 1 1 2 0 1 1 1 2 2 1 3 2 1 0 0 1 0 2 3 5 5 5 5 4 4 4 3 3 3 3 3 3 4 4 5 4 5 2 2 3 3 1 2 3 2 2 3 5 6 7 7 7 5 7 8 5 4 5 5 5 5 6 5 5 4 5 4 5 6 5 5 6 5
Wind_Direction
41 40 38 38 39 35 28 26 26 21 25 22 21 17 23 20 14 15 11 15 2 0 358 357 356 357 354 355 350 349 346 344 331 314 308 298 285 274 276 273 262 256 246 244 232 226 229 239 238 228 214 217 211 218 216 203 192 194 193 211 219 199 178 196 202 222 285 22 236 236 171 155 170 173 168 169 172 187 180 177 169 171 177 179 183
43 38 39 40 40 36 31 28 24 23 30 25 23 24 27 23 17 17 19 13 10 2 4 356 356 359 358 357 354 349 349 355 10 8 3 350 336 307 282 281 279 273 248 239 241 234 226 229 237 229 214 218 208 217 209 206 203 196 189 197 212 205 199 185 202 170 202 269 205 194 173 166 167 179 170 170 177 180 180 174 176 176 179 175 178
46 43 40 37 37 33 33 33 30 30 32 27 27 28 28 25 21 22 20 14 14 10 3 3 357 358 1 358 358 354 347 22 9 8 357 354 351 345 332 308 278 270 267 253 249 256 241 227 233 231 213 214 214 217 214 207 209 210 198 192 200 202 166 198 189 196 186 205 188 211 179 178 176 177 177 175 176 178 177 174 174 179 182 178 181
46 41 35 36 33 31 31 31 32 33 35 30 30 28 27 26 22 24 22 19 15 13 8 6 1 360 2 358 359 354 352 25 10 4 354 348 344 336 335 332 316 287 269 252 235 219 236 238 234 236 229 220 210 211 212 213 210 222 224 207 208 173 178 218 208 193 187 180 193 221 197 178 186 170 170 166 162 176 194 171 171 178 179 182 185
41 38 35 34 31 29 29 30 29 29 35 34 31 31 29 25 22 23 22 21 18 14 9 7 9 4 7 2 357 358 355 30 11 0 354 346 339 334 329 326 323 313 274 257 259 250 238 231 228 229 226 227 218 205 208 212 209 213 218 213 209 195 172 194 211 180 182 184 187 214 203 120 48 104 171 157 182 188 184 175 177 178 179 182 186
39 34 34 35 31 29 29 30 28 26 29 31 31 29 30 28 23 23 24 21 18 17 9 11 12 8 9 7 360 2 359 30 9 357 349 342 338 331 324 319 318 318 304 259 254 254 248 239 233 230 230 219 221 214 207 206 207 211 211 209 209 194 192 189 182 186 217 208 140 120 96 148 162 191 185 183 170 178 183 178 175 177 171 175 195
37 36 35 39 35 32 30 30 28 28 27 27 29 28 28 26 23 20 23 24 20 16 12 15 16 11 8 8 7 4 6 16 2 356 349 342 334 330 324 320 315 313 311 299 268 254 245 241 234 227 228 225 225 225 217 212 208 211 208 208 201 193 197 195 177 181 181 193 173 135 141 176 166 180 191 207 189 173 175 167 182 187 177 179 186
42 45 46 45 42 37 32 29 28 27 33 35 35 33 30 24 19 16 19 26 21 17 12 17 18 15 10 10 9 5 8 6 1 355 348 340 333 326 320 315 314 309 305 303 288 256 244 238 234 227 220 218 220 225 217 214 207 214 214 201 191 194 200 191 187 190 184 185 166 153 180 163 118 160 117 126 146 227 216 183 184 184 186 188 186
48 49 51 49 46 41 34 30 27 27 30 38 38 37 34 27 20 18 19 23 19 15 14 18 18 19 18 12 8 6 8 2 359 350 343 338 333 322 316 311 307 303 299 300 297 279 257 244 232 225 223 223 222 226 222 209 207 214 208 195 196 197 199 193 187 188 192 188 180 158 160 176 172 167 174 182 185 193 193 182 187 189 176 175 199
51 51 51 51 48 43 36 30 30 32 35 35 36 35 34 29 25 21 20 19 16 12 11 20 20 18 17 14 12 9 9 2 352 348 344 340 334 322 311 303 301 296 294 293 293 283 260 239 231 227 230 229 227 224 222 215 211 214 210 204 203 199 195 190 192 203 192 190 186 172 174 175 178 181 184 195 193 166 171 185 187 192 171 170 174
51 56 54 50 49 41 33 27 25 35 38 35 32 31 31 30 26 26 25 21 16 12 11 19 23 18 14 10 10 11 7 0 351 348 345 342 340 331 313 301 297 294 291 288 287 287 278 253 236 234 236 237 227 221 221 221 221 218 215 209 211 200 186 197 196 193 192 192 191 182 182 184 186 185 189 189 185 180 182 183 179 167 182 170 189
57 56 55 49 44 37 29 24 25 30 39 37 32 26 24 25 30 29 30 25 17 13 17 20 24 17 14 11 9 6 2 359 353 351 349 347 345 338 320 303 297 295 294 294 290 288 281 265 244 229 223 215 224 228 224 224 224 224 215 208 212 199 189 194 198 200 194 192 185 192 184 192 185 185 192 186 189 187 185 179 184 184 181 187 184
62 62 56 51 41 31 26 26 24 28 39 41 35 30 22 18 24 30 32 25 16 19 21 21 23 17 14 10 5 2 359 360 354 352 352 352 348 345 335 317 307 292 294 295 292 290 287 274 267 251 229 218 223 225 222 218 220 220 212 218 220 206 201 203 203 206 202 193 186 193 193 184 183 192 193 192 183 183 188 187 190 193 187 187 193
62 62 59 53 44 34 31 29 26 25 34 40 39 34 26 21 16 26 31 24 21 19 22 26 23 18 12 7 2 358 0 360 355 353 353 354 352 348 345 338 330 314 314 308 301 297 293 291 270 254 244 234 227 228 222 206 204 183 195 215 221 187 146 214 207 215 198 185 195 207 203 178 186 198 197 174 160 172 182 202 203 198 193 198 189
55 63 63 56 49 39 32 29 26 23 27 36 39 37 32 26 19 17 29 26 19 19 19 23 20 15 8 5 2 359 359 358 357 355 354 354 353 355 352 348 348 349 348 350 349 341 332 316 283 248 247 234 226 225 213 195 185 190 198 203 201 168 167 177 195 204 194 195 208 205 145 218 182 128 98 124 165 189 187 196 203 203 199 180 131
52 61 65 61 54 45 38 31 27 25 27 33 33 34 33 28 25 15 21 24 20 16 22 23 19 14 9 6 4 359 355 357 358 358 357 355 351 356 356 350 349 347 346 348 343 342 339 350 347 330 299 242 228 220 213 199 181 182 188 184 168 151 140 282 276 217 132 186 187 192 189 170 225 150 150 157 172 161 160 148 129 113 155 170 170
50 60 73 68 61 52 48 42 32 29 32 38 34 29 29 23 25 25 23 23 17 17 22 18 13 12 8 7 6 359 355 356 358 358 358 359 355 358 355 352 349 349 348 347 346 341 343 350 351 346 341 325 283 226 220 198 192 187 184 172 164 153 136 45 24 66 119 103 103 111 120 123 103 100 173 166 153 156 137 136 162 153 162 150 137
56 67 76 77 67 58 53 49 38 31 34 41 38 30 23 18 27 21 32 20 18 14 16 12 7 8 7 6 5 1 355 351 357 356 358 359 360 354 352 349 346 350 348 351 348 344 342 352 1 356 341 328 324 318 252 201 199 188 182 161 152 149 141 142 118 97 103 98 94 91 90 94 93 81 69 109 163 165 157 168 179 157 158 156 150
42 61 82 84 75 67 58 48 39 35 36 36 39 34 22 20 5 20 28 30 21 11 15 14 6 360 1 2 359 3 354 352 355 357 356 358 1 355 353 348 349 351 350 350 351 348 345 347 348 353 349 334 338 335 305 236 206 190 173 165 162 164 160 157 139 129 117 105 92 88 72 66 72 83 76 64 43 18 194 166 146 144 158 159 133
48 56 77 83 89 76 67 58 38 37 38 35 38 34 23 17 12 16 13 28 23 15 15 17 12 359 350 355 358 359 356 353 355 355 356 355 359 1 354 358 351 345 351 352 349 351 348 346 348 349 348 347 350 342 325 252 218 179 177 176 168 165 155 153 147 131 121 115 112 98 95 92 82 71 68 60 53 72 55 63 155 175 154 124 144
45 50 72 78 91 91 78 79 51 25 38 52 46 35 27 22 11 13 8 8 19 13 16 19 11 1 351 351 352 356 358 358 353 356 354 354 355 1 359 359 348 341 348 350 355 351 346 347 341 347 345 350 356 354 334 284 243 180 177 177 180 152 144 129 125 116 109 104 99 96 86 76 75 78 70 57 53 53 65 70 66 63 135 155 146
21 28 50 64 85 94 92 68 61 43 35 53 56 40 23 21 15 13 8 9 12 9 11 18 14 2 351 348 351 350 354 359 359 355 355 354 354 356 1 356 354 342 347 354 355 354 348 342 343 343 346 359 3 4 346 308 241 187 153 114 109 120 123 120 121 111 103 99 99 89 86 86 77 71 66 64 59 54 62 63 59 71 77 84 106
36 32 37 15 35 74 92 84 61 50 41 53 71 54 32 21 10 12 14 9 10 9 6 12 14 6 358 350 345 348 353 355 359 356 354 354 353 353 354 353 354 357 349 350 352 350 347 348 344 347 354 8 8 10 3 2 311 109 122 122 120 116 114 116 115 111 104 100 97 95 90 89 85 80 78 79 69 72 72 64 69 77 73 65 69
47 25 11 5 345 30 64 87 54 51 56 57 65 66 41 25 14 12 14 14 15 13 5 7 14 13 6 352 351 351 351 356 351 354 352 351 350 351 350 351 356 358 354 352 347 350 353 351 350 354 359 14 16 13 8 27 16 86 108 103 107 107 105 108 98 102 103 98 96 94 90 90 92 88 86 86 84 81 80 80 79 78 82 82 72
51 32 15 6 343 13 45 66 58 61 59 65 62 62 47 36 22 5 17 16 17 21 7 6 11 11 5 358 351 349 350 351 351 348 350 348 348 347 348 351 353 359 357 347 350 345 353 357 2 2 3 12 23 19 14 24 28 18 55 77 79 96 98 98 102 101 99 100 101 95 88 76 81 91 94 93 91 86 84 77 74 75 83 81 73
51 28 23 11 4 352 38 44 47 51 53 51 67 73 82 49 39 12 22 19 21 20 11 8 4 3 0 356 351 345 344 347 346 347 346 345 343 345 347 348 353 354 356 354 349 351 354 358 6 8 11 12 24 26 15 23 27 24 27 52 57 60 72 81 79 88 97 104 99 98 93 86 80 81 79 85 88 87 97 99 97 82 81 87 83
48 49 22 11 9 5 26 29 35 39 44 45 36 52 53 70 50 32 20 25 23 21 14 12 6 357 351 349 345 340 343 342 344 343 347 343 341 344 347 352 352 354 360 354 355 354 349 358 12 15 13 19 24 32 27 21 29 26 21 34 48 53 56 56 67 69 65 87 95 90 86 83 81 73 71 75 82 80 86 100 97 99 94 90 92
29 17 30 28 19 14 29 34 40 56 54 55 44 13 35 54 66 40 26 9 35 23 20 16 8 356 343 341 340 341 341 343 345 345 338 341 337 343 350 351 352 1 357 353 352 354 358 8 16 17 14 20 20 25 27 23 31 28 27 30 44 46 49 54 55 55 45 41 74 88 83 77 74 76 73 71 69 66 72 92 102 103 102 102 92
44 27 2 11 17 20 22 28 27 71 80 67 60 76 25 32 69 76 14 17 25 63 41 20 358 339 336 342 345 341 342 346 343 332 332 337 338 348 354 348 350 4 359 354 350 5 16 19 17 17 19 18 18 20 22 25 26 26 30 28 38 42 43 42 48 42 34 38 42 54 78 82 79 75 80 76 64 61 50 72 64 85 89 93 98
35 19 22 14 349 353 27 30 21 24 85 147 110 71 86 108 62 115 219 66 91 272 211 57 275 295 334 342 343 332 321 314 321 337 340 342 342 350 3 358 2 9 5 356 6 21 20 24 21 20 20 23 24 22 18 20 22 25 26 26 31 36 39 41 43 44 41 45 40 44 47 62 68 67 74 80 76 64 57 68 73 75 85 85 87
39 20 17 12 360 334 11 34 24 28 29 93 174 206 284 360 48 47 54 328 357 336 320 294 293 280 270 336 332 330 327 333 342 344 347 346 349 353 12 360 4 14 11 4 19 23 18 23 21 22 23 26 29 25 21 23 24 30 32 33 33 33 32 31 25 36 41 41 42 43 46 52 56 49 62 68 76 71 62 58 70 67 77 83 85
65 31 16 10 0 1 350 27 27 30 16 4 5 50 54 35 39 307 315 329 335 328 307 311 311 315 313 319 340 333 348 350 351 358 356 358 353 358 12 5 8 25 14 20 32 22 17 21 21 22 21 30 26 26 25 26 25 28 28 38 36 32 38 38 21 34 36 39 41 39 38 44 46 48 50 54 64 71 71 65 67 74 78 90 104
83 51 31 8 2 360 8 6 13 20 27 8 356 35 46 45 34 3 299 263 267 296 306 305 308 307 315 329 359 11 21 15 9 4 11 6 1 1 8 4 6 15 23 29 32 23 18 21 23 20 22 28 26 27 28 28 28 28 31 35 33 28 36 31 29 43 45 46 51 51 45 44 49 51 45 45 56 66 67 74 77 84 89 90 81
111 84 38 18 13 358 9 339 24 4 1 19 341 31 39 44 31 58 29 3 4 301 271 284 290 306 322 351 1 9 21 23 12 15 19 8 1 358 14 360 354 4 30 31 30 29 23 25 22 20 16 21 23 24 30 29 28 31 33 34 24 33 32 28 40 38 35 33 39 41 47 47 50 63 64 66 67 71 68 75 82 86 85 92 96
115 73 36 20 19 4 351 338 11 4 359 356 331 352 36 32 33 46 56 45 18 15 263 310 312 294 328 352 1 9 24 30 25 20 17 10 5 358 16 7 1 2 17 26 27 29 28 30 27 21 21 21 20 22 28 27 30 31 31 31 34 30 33 38 42 39 38 35 36 35 39 52 52 53 59 58 54 56 58 67 71 85 94 93 93
120 79 29 14 2 349 346 320 3 1 339 348 0 10 31 34 29 32 54 19 23 16 357 286 283 334 10 4 2 2 25 38 29 23 23 10 5 9 17 9 5 3 11 18 22 22 23 24 31 31 29 29 26 29 28 33 33 36 33 39 41 39 39 44 40 41 38 42 40 36 36 34 35 46 54 54 60 66 71 77 81 83 93 97 95
109 101 54 350 344 328 344 347 354 346 359 38 37 32 24 9 15 26 28 357 354 355 37 5 10 358 353 344 356 3 25 44 31 26 22 13 8 15 14 11 11 8 2 14 21 24 27 22 26 27 24 32 36 35 33 35 35 40 44 47 48 51 48 42 38 35 39 43 42 44 46 40 34 33 53 59 45 53 58 69 74 82 97 108 106
130 148 148 239 310 322 350 343 360 24 48 60 49 45 30 2 8 22 19 351 347 358 4 18 39 34 6 332 353 17 28 31 29 24 18 18 11 12 8 7 10 15 5 359 16 22 25 22 27 35 25 30 41 41 39 38 34 36 32 25 25 32 38 41 36 38 36 43 48 54 55 48 48 52 50 55 45 39 48 69 81 88 90 95 103
143 191 177 246 279 304 328 325 34 66 66 47 54 44 5 1 6 11 356 19 8 349 359 48 54 31 334 316 11 359 37 29 27 20 16 18 9 10 9 6 8 7 7 4 353 17 27 26 17 16 17 14 17 29 61 316 326 336 352 360 1 1 5 4 6 5 34 49 49 28 30 19 20 34 69 72 49 65 80 76 87 99 112 113 113
174 236 220 235 267 327 340 334 30 107 111 101 67 63 334 328 328 334 332 19 3 351 11 38 16 267 301 333 31 38 58 41 32 18 20 19 13 6 8 6 2 3 2 6 357 352 23 24 14 15 6 357 351 340 333 314 306 304 326 10 45 41 27 31 31 27 15 358 20 21 43 9 358 17 24 41 62 76 84 89 83 90 105 115 111
298 283 345 225 62 13 28 13 23 53 164 181 211 203 233 267 272 274 342 3 350 16 352 338 209 236 267 345 49 86 80 65 39 27 20 26 17 10 5 4 359 359 358 356 356 353 355 6 9 7 2 354 353 358 2 34 46 43 26 27 36 40 36 29 26 28 29 30 17 15 14 38 29 52 13 326 20 61 55 57 64 71 73 84 111
339 346 322 276 73 59 50 8 10 317 231 298 314 291 262 243 222 242 329 296 317 328 352 332 321 246 265 334 52 85 84 74 57 34 23 30 27 10 4 3 358 356 354 349 356 353 346 358 4 7 13 7 10 10 15 16 28 42 38 33 27 22 21 14 15 20 22 16 5 356 348 1 7 24 18 25 53 54 59 65 82 83 82 83 82
357 12 290 237 104 66 60 345 23 7 352 331 315 329 308 236 202 232 352 360 311 343 18 6 337 356 333 21 81 90 81 84 71 50 41 41 32 22 11 5 356 348 344 347 355 4 356 359 357 356 4 12 29 42 43 28 15 46 54 53 46 42 37 27 23 16 19 21 7 355 350 347 3 30 49 48 59 71 85 88 84 86 85 84 80
6 355 332 254 101 58 22 18 346 5 319 297 308 328 311 339 150 66 67 19 345 340 28 125 139 60 1 54 91 85 92 96 90 80 61 48 34 28 17 2 351 350 356 354 357 1 13 13 10 5 13 9 1 9 19 44 82 84 80 64 47 39 35 27 17 2 3 16 8 2 353 346 21 82 64 60 73 80 84 83 80 83 84 81 80
333 353 330 259 82 63 13 324 354 329 300 336 339 330 317 8 80 110 97 24 336 351 24 154 108 99 24 71 113 116 151 154 161 112 80 79 58 33 23 5 352 347 349 355 350 3 13 11 7 11 11 8 8 12 16 15 28 66 89 89 81 59 41 33 11 360 16 24 12 9 354 7 26 50 56 56 82 104 101 105 104 96 82 80 83
360 13 324 245 93 63 49 342 317 309 325 350 328 316 334 25 88 124 97 302 332 349 19 5 104 95 80 105 125 129 163 176 191 171 104 98 86 55 26 11 357 349 346 340 346 3 4 11 9 13 8 13 15 28 30 29 28 29 29 33 39 36 47 55 31 37 29 21 8 4 3 24 46 49 65 72 60 53 56 64 90 104 112 112 106
78 356 309 234 111 104 85 344 324 350 1 346 335 343 350 40 97 108 15 7 353 359 13 75 117 82 57 117 143 162 176 144 115 109 111 121 120 100 34 12 9 354 348 345 353 353 352 354 2 359 20 23 35 35 30 33 39 32 29 27 27 15 0 1 40 45 30 22 18 9 7 25 44 37 48 60 52 46 58 47 58 117 117 120 129
38 323 280 226 159 111 68 9 340 37 35 338 339 354 26 68 81 64 35 33 32 20 11 50 122 178 40 98 157 178 192 167 141 126 138 138 153 139 70 12 342 327 345 351 346 336 339 334 344 356 30 31 42 47 43 38 34 31 26 22 20 11 9 11 22 25 20 29 20 11 359 40 54 39 27 34 50 64 56 32 35 48 93 100 95
8 295 251 229 176 142 140 154 239 94 138 302 26 7 16 14 167 52 50 54 50 34 44 67 155 221 302 110 150 183 190 154 144 151 162 171 162 160 157 241 289 314 347 323 310 312 319 321 326 345 43 52 75 75 67 58 48 34 21 19 5 15 29 30 22 7 18 31 15 9 24 46 45 41 36 40 29 46 72 55 70 77 58 32 38
328 269 236 194 176 197 332 185 206 134 161 95 69 34 359 324 59 44 60 60 49 26 355 45 148 207 177 317 137 180 168 151 166 174 187 181 178 172 178 216 254 277 286 283 285 295 304 310 312 332 57 107 85 76 90 79 67 54 31 7 9 29 30 21 21 11 23 15 12 358 10 51 45 41 40 46 45 43 45 33 32 51 50 29 14
306 285 278 239 185 154 180 176 217 178 157 180 124 101 78 94 226 165 117 118 90 29 336 9 197 245 308 281 261 181 187 165 170 183 195 185 188 183 184 203 228 253 269 281 281 294 291 298 303 4 94 112 104 98 80 71 29 5 18 24 25 21 26 28 14 357 13 11 1 7 29 47 47 32 28 34 40 42 37 50 41 35 39 35 20